Home   Weather   Trois-Rivieres   Past weeks

Flag for Canada Past Weather in Trois-Rivieres, Quebec, Canada — Yesterday and Last 2 Weeks

Now
58 °F

Refreshingly cool.


Feels Like: 54 °F
Forecast: 41 / 60 °F
Wind: 20 mph from Southwest

Location: Trois Rivieres

Current Time: Apr 28, 2017 at 8:09:28 pm

Latest Report: Apr 28, 2017 at 7:00 pm


Visibility: N/A

Pressure: 29.85 "Hg

Humidity: 54%

Dew Point: 41 °F

Location of Trois-RivieresLocation

Past Weather in Trois-Rivieres — Graph

°F

Trois-Rivieres Temperature Yesterday

Maximum temperature yesterday: 55 °F (at 4:00 pm)
Minimum temperature yesterday: 42 °F (at 11:00 pm)
Average temperature yesterday: 49 °F

High & Low Weather Summary for the Past Weeks

 TemperatureHumidityPressure
High59 °F (Apr 28, 4:00 pm)100% (Apr 16, 2:00 am)30.51 "Hg (Apr 16, 2:00 am)
Low28 °F (Apr 24, 6:00 am)25% (Apr 13, 6:00 pm)29.64 "Hg (Apr 16, 5:00 am)
Average43 °F78%30.04 "Hg
* Reported Apr 13 6:00 pm — Apr 28 6:00 pm, Trois-Rivieres, Weather by CustomWeather, © 2017

Note: Actual official high and low records may vary slightly from our data, if they occured in-between our weather recording intervals... More about our weather records

Advertising

Trois-Rivieres Weather History for the Previous 24 Hours

Scroll right to see more
 ConditionsComfort  
Time TempWeatherWind HumidityBarometerVisibility
6:00 pm
Fri, Apr 28
58 °FRefreshingly cool.18 mph56%29.85 "HgN/A
5:00 pm59 °FRefreshingly cool.22 mph57%29.85 "HgN/A
4:00 pm59 °FRefreshingly cool.21 mph56%29.84 "HgN/A
3:00 pm59 °FCool.22 mph61%29.85 "HgN/A
2:00 pm58 °FCool.23 mph65%29.86 "HgN/A
1:00 pm55 °FCool.17 mph75%29.87 "HgN/A
12:00 pm46 °FCool.7 mph90%29.89 "HgN/A
11:00 am46 °FCool.6 mph87%29.89 "HgN/A
10:00 am44 °FQuite cool.6 mph89%29.89 "HgN/A
9:00 am43 °FQuite cool.6 mph90%29.87 "HgN/A
8:00 am43 °FQuite cool.7 mph92%29.85 "HgN/A
7:00 am42 °FQuite cool.7 mph92%29.84 "HgN/A
6:00 am42 °FQuite cool.8 mph93%29.82 "HgN/A
5:00 am42 °FQuite cool.9 mph86%29.80 "HgN/A
4:00 am40 °FQuite cool.9 mph93%29.80 "HgN/A
3:00 am42 °FQuite cool.9 mph96%29.79 "HgN/A
2:00 am42 °FQuite cool.10 mph96%29.79 "HgN/A
1:00 am42 °FQuite cool.10 mph96%29.81 "HgN/A
12:00 am42 °FQuite cool.10 mph94%29.79 "HgN/A
11:00 pm
Thu, Apr 27
42 °FQuite cool.12 mph95%29.80 "HgN/A
10:00 pm43 °FQuite cool.12 mph92%29.80 "HgN/A
9:00 pm44 °FQuite cool.12 mph90%29.80 "HgN/A
8:00 pm47 °FCool.13 mph88%29.79 "HgN/A
Weather by CustomWeather, © 2017

See weather overviewHow to use our weather pages